sat.trackr.live / text

‹ back to catalog

STARLINK-11451 [DTC]

NORAD 62561 · 2025-006H

PAYLOAD ACTIVE UNKNOWN

§ Identity

Operator
Country
US
Launch date
2025-01-10
Launch site
AFETR
Launch vehicle
Mass (kg)
RCS (m²)

Purposes: comms

External: N2YO · Heavens-Above · Gunter

§ Orbital elements

Epoch: 2026-09-21T15:30:03.702816Z

Period
91.67 min
Inclination
43.0020°
Eccentricity
0.0002069
Mean motion
15.70881499 rev/d
Perigee alt
355.0 km
Apogee alt
357.8 km
Semi-major
6,734.5 km
B*
1.2314e-3
RAAN
38.5180°
Arg perigee
262.9414°
Mean anomaly
97.1218°
Rev number
9,742

§ Raw data

STARLINK-11451 [DTC]1 62561U 25006H   26264.64587619  .00160943  00000+0  12314-2 0  99942 62561  43.0020  38.5180 0002069 262.9414  97.1218 15.70881499 97423

JSON: /api/v1/satellites/62561 · /tle

For live sub-satellite position, see the globe view (requires WebGL).

§ Visibility from observer

Set your observer location to see the next 7 days of passes ≥ 10°. The values pass through the URL so the page stays shareable.

No JS? Fill the form by hand. The geolocation button needs JavaScript.